User: anonymous   Login
Location: Asheville, NC
(35.6000°N, 82.5500°W)
Time: 06:08:51
(UTC-04:00)
Language:

TIGRISAT - Orbit

View from above orbital plane
View from above orbital plane
View from above satellite
View from above satellite

Ground track
Ground track

The orbit data is extracted from the following two-line orbital elements,

1 40043U 14033AK  18202.72034763  .00000106  00000-0  23054-4 0  9992
2 40043  97.8041  78.7693 0061587  87.6039 273.2220 14.74156102219698
Epoch (UTC): 21 July 2018 17:17:18
Eccentricity: 0.0061587
inclination: 97.8041°
perigee height: 604 km
apogee height: 691 km
right ascension of ascending node: 78.7693°
argument of perigee: 87.6039°
revolutions per day: 14.74156102
mean anomaly at epoch: 273.2220°
orbit number at epoch: 21969

The dashed part of the orbit path shows where the satellite is in the earth's shadow,  

DLR